Weather History for New Haven, CT

Change the Weather History Date:

Wednesday, June 12, 2013

  Actual Average Record
Temperature  
Mean Temperature 68 °F -  
Max Temperature 75 °F 72 °F 97 °F (1973)
Min Temperature 60 °F 56 °F 46 °F (1972)
Cooling Degree Days 4    
Growing Degree Days 18 (Base 50)    
Moisture  
Dew Point 52 °F    
Average Humidity 56    
Maximum Humidity 75    
Minimum Humidity 40    
Precipitation  
Precipitation 0.00 in - - ()
Sea Level Pressure  
Sea Level Pressure 29.75 in    
Wind  
Wind Speed 7 mph (NW)    
Max Wind Speed 16 mph    
Max Gust Speed 29 mph    
Visibility 10 miles    
Events      
Averages and records for this station are not official NWS values.
T = Trace of Precipitation, MM = Missing Value Source: NWS Daily Summary

Daily Weather History Graph

Daily Weather History Graph

Search for Another Location

Airport:

Trip Planner

Search our weather history database for the weather conditions in past years. The results will help you decide how hot, cold, wet, or windy it might be!

Date:

Astronomy

Jun. 12, 2013 Rise Set
Actual Time 5:17 AM EDT 8:25 PM EDT
Civil Twilight 4:44 AM EDT 8:58 PM EDT
Nautical Twilight 4:01 AM EDT 9:42 PM EDT
Astronomical Twilight 3:10 AM EDT 10:33 PM EDT
Moon 8:56 AM EDT (6/12) 10:57 PM EDT (6/12)
Length of Visible Light 16h 14m
Length of Day
15h 07m
Waxing Crescent, 14% of the Moon is Illuminated
Jun 12
Waxing Crescent
Jun 16
First Quarter
Jun 23
Full
Jun 30
Last Quarter
Jul 8
New

Hourly Weather History & Observations

Time (EDT) Temp. Dew Point Humidity Pressure Visibility Wind Dir Wind Speed Gust Speed Precip Events Conditions
12:53 AM 68.0 °F 55.0 °F 63% 29.67 in 10.0 mi Variable 4.6 mph - N/A   Clear
1:53 AM 66.9 °F 55.9 °F 68% 29.66 in 10.0 mi Variable 4.6 mph - N/A   Scattered Clouds
2:53 AM 66.9 °F 55.9 °F 68% 29.66 in 10.0 mi WSW 5.8 mph - N/A   Mostly Cloudy
3:53 AM 64.9 °F 55.0 °F 70% 29.65 in 10.0 mi Calm Calm - N/A   Partly Cloudy
4:53 AM 64.9 °F 55.0 °F 70% 29.68 in 10.0 mi Variable 4.6 mph - N/A   Clear
5:53 AM 64.0 °F 55.0 °F 73% 29.70 in 10.0 mi NW 4.6 mph - N/A   Scattered Clouds
6:53 AM 66.0 °F 52.0 °F 60% 29.71 in 10.0 mi NW 10.4 mph 17.3 mph N/A   Mostly Cloudy
7:53 AM 66.9 °F 52.0 °F 59% 29.73 in 10.0 mi NW 9.2 mph 19.6 mph N/A   Scattered Clouds
8:53 AM 68.0 °F 52.0 °F 56% 29.73 in 10.0 mi NW 11.5 mph 20.7 mph N/A   Mostly Cloudy
9:53 AM 68.0 °F 53.1 °F 59% 29.72 in 10.0 mi NW 10.4 mph 18.4 mph N/A   Mostly Cloudy
10:53 AM 71.1 °F 52.0 °F 51% 29.74 in 10.0 mi NW 9.2 mph 24.2 mph N/A   Mostly Cloudy
11:53 AM 72.0 °F 52.0 °F 49% 29.74 in 10.0 mi WNW 13.8 mph 25.3 mph N/A   Mostly Cloudy
12:53 PM 73.9 °F 51.1 °F 45% 29.75 in 10.0 mi NW 16.1 mph 25.3 mph N/A   Mostly Cloudy
1:53 PM 72.0 °F 51.1 °F 48% 29.76 in 10.0 mi NNW 12.7 mph 28.8 mph N/A   Mostly Cloudy
2:53 PM 73.0 °F 48.9 °F 42% 29.77 in 10.0 mi NNW 16.1 mph 25.3 mph N/A   Mostly Cloudy
3:53 PM 73.9 °F 51.1 °F 45% 29.77 in 10.0 mi NNW 10.4 mph 20.7 mph N/A   Mostly Cloudy
4:53 PM 75.9 °F 50.0 °F 40% 29.77 in 10.0 mi NW 12.7 mph 20.7 mph N/A   Mostly Cloudy
5:53 PM 75.0 °F 48.9 °F 40% 29.78 in 10.0 mi NNW 12.7 mph 21.9 mph N/A   Scattered Clouds
6:53 PM 75.0 °F 48.9 °F 40% 29.80 in 10.0 mi NNW 10.4 mph 23.0 mph N/A   Partly Cloudy
7:53 PM 72.0 °F 48.9 °F 44% 29.83 in 10.0 mi NW 8.1 mph - N/A   Clear
8:53 PM 69.1 °F 50.0 °F 51% 29.84 in 10.0 mi NW 4.6 mph - N/A   Clear
9:53 PM 68.0 °F 51.1 °F 55% 29.85 in 10.0 mi Calm Calm - N/A   Clear
10:53 PM 62.1 °F 52.0 °F 70% 29.84 in 10.0 mi Calm Calm - N/A   Clear
11:53 PM 60.1 °F 52.0 °F 75% 29.83 in 10.0 mi Calm Calm - N/A   Clear